Time,TemperatureF,DewpointF,PressureIn,WindDirection,WindDirectionDegrees,WindSpeedMPH,WindSpeedGustMPH,Humidity,HourlyPrecipIn,Conditions,Clouds,dailyrainin,SoftwareType,DateUTC
2013-08-07 00:02:00,74.0,72.0,29.79,SSE,151,0.0,-999.0,92,-99.99,,,-99.99,,2013-08-07 05:02:00,
2013-08-07 00:11:00,74.0,72.0,29.79,SSE,152,0.0,-999.0,92,-99.99,,,-99.99,,2013-08-07 05:11:00,
2013-08-07 00:22:00,74.0,72.0,29.79,SSE,152,0.0,-999.0,92,-99.99,,,-99.99,,2013-08-07 05:22:00,
2013-08-07 00:32:00,74.0,72.0,29.80,SSW,208,0.0,-999.0,92,-99.99,,,-99.99,,2013-08-07 05:32:00,
2013-08-07 00:43:00,74.0,72.0,29.80,SSW,208,0.0,-999.0,93,-99.99,,,-99.99,,2013-08-07 05:43:00,
2013-08-07 00:52:00,74.0,72.0,29.80,SSW,208,0.0,-999.0,93,-99.99,,,-99.99,,2013-08-07 05:52:00,
2013-08-07 01:02:00,74.0,72.0,29.79,SE,141,0.0,-999.0,93,-99.99,,,-99.99,,2013-08-07 06:02:00,
2013-08-07 01:11:00,73.0,71.0,29.78,SE,141,0.0,-999.0,93,-99.99,,,-99.99,,2013-08-07 06:11:00,
2013-08-07 01:22:00,73.0,71.0,29.78,SE,141,0.0,-999.0,93,-99.99,,,-99.99,,2013-08-07 06:22:00,
2013-08-07 01:32:00,73.0,71.0,29.78,SE,141,0.0,-999.0,94,-99.99,,,-99.99,,2013-08-07 06:32:00,
2013-08-07 01:43:00,73.0,71.0,29.77,South,173,0.0,-999.0,94,-99.99,,,-99.99,,2013-08-07 06:43:00,
2013-08-07 01:52:00,73.0,71.0,29.77,South,173,0.0,-999.0,94,-99.99,,,-99.99,,2013-08-07 06:52:00,
2013-08-07 02:01:00,72.0,70.0,29.77,South,173,0.0,-999.0,95,-99.99,,,-99.99,,2013-08-07 07:01:00,
2013-08-07 02:12:00,73.0,71.0,29.78,SSE,158,0.0,-999.0,95,-99.99,,,-99.99,,2013-08-07 07:12:00,
2013-08-07 02:22:00,73.0,71.0,29.78,SSE,158,0.0,-999.0,95,-99.99,,,-99.99,,2013-08-07 07:22:00,
2013-08-07 02:33:00,73.0,71.0,29.77,SSE,155,0.0,-999.0,95,-99.99,,,-99.99,,2013-08-07 07:33:00,
2013-08-07 02:43:00,73.0,71.0,29.76,SSE,155,0.0,-999.0,95,-99.99,,,-99.99,,2013-08-07 07:43:00,
2013-08-07 02:52:00,73.0,71.0,29.76,SSE,155,0.0,-999.0,95,-99.99,,,-99.99,,2013-08-07 07:52:00,
2013-08-07 03:01:00,72.0,71.0,29.76,SSE,155,0.0,-999.0,96,-99.99,,,-99.99,,2013-08-07 08:01:00,
2013-08-07 03:11:00,72.0,70.0,29.76,SSE,155,0.0,-999.0,95,-99.99,,,-99.99,,2013-08-07 08:11:00,
2013-08-07 03:22:00,72.0,70.0,29.76,SSE,155,0.0,-999.0,95,-99.99,,,-99.99,,2013-08-07 08:22:00,
2013-08-07 03:32:00,72.0,71.0,29.76,SSE,155,0.0,-999.0,96,-99.99,,,-99.99,,2013-08-07 08:32:00,
2013-08-07 03:44:00,71.0,70.0,29.76,SSE,155,0.0,-999.0,96,-99.99,,,-99.99,,2013-08-07 08:44:00,
2013-08-07 03:52:00,71.0,70.0,29.76,SSE,155,0.0,-999.0,96,-99.99,,,-99.99,,2013-08-07 08:52:00,
2013-08-07 04:02:00,70.0,69.0,29.77,SSE,155,0.0,-999.0,96,-99.99,,,-99.99,,2013-08-07 09:02:00,
2013-08-07 04:11:00,70.0,69.0,29.76,SSE,155,0.0,-999.0,97,-99.99,,,-99.99,,2013-08-07 09:11:00,
2013-08-07 04:22:00,70.0,69.0,29.76,SSE,155,0.0,-999.0,97,-99.99,,,-99.99,,2013-08-07 09:22:00,
2013-08-07 04:32:00,71.0,70.0,29.76,SSE,155,0.0,-999.0,97,-99.99,,,-99.99,,2013-08-07 09:32:00,
2013-08-07 04:43:00,71.0,70.0,29.76,SSE,155,0.0,-999.0,97,-99.99,,,-99.99,,2013-08-07 09:43:00,
2013-08-07 04:54:00,71.0,70.0,29.76,SSE,155,0.0,-999.0,97,-99.99,,,-99.99,,2013-08-07 09:54:00,
2013-08-07 05:01:00,71.0,70.0,29.76,SSE,155,0.0,-999.0,97,-99.99,,,-99.99,,2013-08-07 10:01:00,
2013-08-07 05:11:00,72.0,71.0,29.76,SSE,155,0.0,-999.0,97,-99.99,,,-99.99,,2013-08-07 10:11:00,
2013-08-07 05:22:00,72.0,71.0,29.76,SSE,155,0.0,-999.0,97,-99.99,,,-99.99,,2013-08-07 10:22:00,
2013-08-07 05:32:00,71.0,70.0,29.76,SSE,155,0.0,-999.0,97,-99.99,,,-99.99,,2013-08-07 10:32:00,
2013-08-07 05:43:00,71.0,70.0,29.76,SSE,155,0.0,-999.0,97,-99.99,,,-99.99,,2013-08-07 10:43:00,
2013-08-07 05:52:00,71.0,70.0,29.76,SSE,155,0.0,-999.0,97,-99.99,,,-99.99,,2013-08-07 10:52:00,
2013-08-07 06:01:00,70.0,69.0,29.76,SSE,155,0.0,-999.0,97,-99.99,,,-99.99,,2013-08-07 11:01:00,
2013-08-07 06:11:00,70.0,69.0,29.76,SSE,155,0.0,-999.0,97,-99.99,,,-99.99,,2013-08-07 11:11:00,
2013-08-07 06:22:00,70.0,69.0,29.76,SSE,155,0.0,-999.0,97,-99.99,,,-99.99,,2013-08-07 11:22:00,
2013-08-07 06:32:00,70.0,69.0,29.77,SSE,155,0.0,-999.0,97,-99.99,,,-99.99,,2013-08-07 11:32:00,
2013-08-07 06:43:00,70.0,69.0,29.77,SSE,155,0.0,-999.0,98,-99.99,,,-99.99,,2013-08-07 11:43:00,
2013-08-07 06:52:00,70.0,69.0,29.77,SSE,155,0.0,-999.0,98,-99.99,,,-99.99,,2013-08-07 11:52:00,
2013-08-07 07:02:00,71.0,70.0,29.77,South,190,0.0,-999.0,98,-99.99,,,-99.99,,2013-08-07 12:02:00,
2013-08-07 07:11:00,71.0,70.0,29.78,South,182,0.0,-999.0,98,-99.99,,,-99.99,,2013-08-07 12:11:00,
2013-08-07 07:22:00,71.0,70.0,29.78,South,182,0.0,-999.0,98,-99.99,,,-99.99,,2013-08-07 12:22:00,
2013-08-07 07:32:00,71.0,70.0,29.78,South,182,0.0,-999.0,98,-99.99,,,-99.99,,2013-08-07 12:32:00,
2013-08-07 07:43:00,71.0,70.0,29.78,South,182,0.0,-999.0,98,-99.99,,,-99.99,,2013-08-07 12:43:00,
2013-08-07 07:52:00,71.0,70.0,29.78,South,182,0.0,-999.0,98,-99.99,,,-99.99,,2013-08-07 12:52:00,
2013-08-07 08:02:00,72.0,71.0,29.77,South,182,0.0,-999.0,98,-99.99,,,-99.99,,2013-08-07 13:02:00,
2013-08-07 08:11:00,73.0,72.0,29.78,SSW,210,0.0,-999.0,98,-99.99,,,-99.99,,2013-08-07 13:11:00,
2013-08-07 08:22:00,73.0,72.0,29.78,SSW,210,0.0,-999.0,98,-99.99,,,-99.99,,2013-08-07 13:22:00,
2013-08-07 08:32:00,74.0,73.0,29.78,WSW,248,0.0,-999.0,97,-99.99,,,-99.99,,2013-08-07 13:32:00,
2013-08-07 08:44:00,75.0,73.0,29.78,SW,229,0.0,-999.0,94,-99.99,,,-99.99,,2013-08-07 13:44:00,
2013-08-07 08:53:00,75.0,73.0,29.78,SW,229,0.0,-999.0,94,-99.99,,,-99.99,,2013-08-07 13:53:00,
2013-08-07 09:02:00,76.0,74.0,29.78,WSW,238,1.0,-999.0,92,-99.99,,,-99.99,,2013-08-07 14:02:00,
2013-08-07 09:11:00,77.0,74.0,29.78,SW,234,0.0,-999.0,91,-99.99,,,-99.99,,2013-08-07 14:11:00,
2013-08-07 09:22:00,77.0,74.0,29.78,SW,234,0.0,-999.0,91,-99.99,,,-99.99,,2013-08-07 14:22:00,
2013-08-07 09:33:00,78.0,74.0,29.78,West,260,0.0,-999.0,89,-99.99,,,-99.99,,2013-08-07 14:33:00,
2013-08-07 09:43:00,79.0,75.0,29.77,West,259,1.0,-999.0,88,-99.99,,,-99.99,,2013-08-07 14:43:00,
2013-08-07 09:52:00,79.0,75.0,29.77,West,259,1.0,-999.0,88,-99.99,,,-99.99,,2013-08-07 14:52:00,
2013-08-07 10:02:00,79.0,75.0,29.78,SW,224,1.0,-999.0,87,-99.99,,,-99.99,,2013-08-07 15:02:00,
2013-08-07 10:12:00,80.0,76.0,29.78,SSW,208,1.0,-999.0,88,-99.99,,,-99.99,,2013-08-07 15:12:00,
2013-08-07 10:22:00,80.0,76.0,29.78,SSW,208,1.0,-999.0,88,-99.99,,,-99.99,,2013-08-07 15:22:00,
2013-08-07 10:33:00,81.0,76.0,29.79,West,265,0.0,-999.0,86,-99.99,,,-99.99,,2013-08-07 15:33:00,
2013-08-07 10:43:00,82.0,77.0,29.78,SW,218,0.0,-999.0,85,-99.99,,,-99.99,,2013-08-07 15:43:00,
2013-08-07 10:53:00,82.0,77.0,29.78,SW,218,0.0,-999.0,85,-99.99,,,-99.99,,2013-08-07 15:53:00,
2013-08-07 11:02:00,82.0,77.0,29.79,SW,221,2.0,-999.0,84,-99.99,,,-99.99,,2013-08-07 16:02:00,
2013-08-07 11:11:00,82.0,77.0,29.78,WSW,246,0.0,-999.0,84,-99.99,,,-99.99,,2013-08-07 16:11:00,
2013-08-07 11:22:00,82.0,77.0,29.78,WSW,246,0.0,-999.0,84,-99.99,,,-99.99,,2013-08-07 16:22:00,
2013-08-07 11:33:00,82.0,77.0,29.79,SW,229,0.0,-999.0,84,-99.99,,,-99.99,,2013-08-07 16:33:00,
2013-08-07 11:43:00,81.0,75.0,29.78,West,276,1.0,-999.0,81,-99.99,,,-99.99,,2013-08-07 16:43:00,
2013-08-07 11:53:00,81.0,75.0,29.78,West,276,1.0,-999.0,81,-99.99,,,-99.99,,2013-08-07 16:53:00,
2013-08-07 12:01:00,80.0,75.0,29.79,West,266,0.0,-999.0,84,-99.99,,,-99.99,,2013-08-07 17:01:00,
2013-08-07 12:11:00,80.0,75.0,29.79,West,266,0.0,-999.0,84,-99.99,,,-99.99,,2013-08-07 17:11:00,
2013-08-07 12:22:00,80.0,75.0,29.79,West,266,0.0,-999.0,84,-99.99,,,-99.99,,2013-08-07 17:22:00,
2013-08-07 12:33:00,81.0,76.0,29.78,WNW,302,1.0,-999.0,85,-99.99,,,-99.99,,2013-08-07 17:33:00,
2013-08-07 12:43:00,81.0,76.0,29.78,West,275,1.0,-999.0,84,-99.99,,,-99.99,,2013-08-07 17:43:00,
2013-08-07 12:52:00,81.0,76.0,29.78,West,275,1.0,-999.0,84,-99.99,,,-99.99,,2013-08-07 17:52:00,
2013-08-07 13:02:00,82.0,76.0,29.78,WSW,240,1.0,-999.0,81,-99.99,,,-99.99,,2013-08-07 18:02:00,
2013-08-07 13:22:00,82.0,76.0,29.78,West,270,1.0,-999.0,81,-99.99,,,-99.99,,2013-08-07 18:22:00,
2013-08-07 13:32:00,83.0,75.0,29.78,West,281,1.0,-999.0,78,-99.99,,,-99.99,,2013-08-07 18:32:00,
2013-08-07 13:43:00,83.0,75.0,29.78,WNW,299,2.0,-999.0,78,-99.99,,,-99.99,,2013-08-07 18:43:00,
2013-08-07 13:52:00,83.0,75.0,29.78,WNW,299,2.0,-999.0,78,-99.99,,,-99.99,,2013-08-07 18:52:00,
2013-08-07 14:01:00,82.0,76.0,29.78,WNW,284,1.0,-999.0,81,-99.99,,,-99.99,,2013-08-07 19:01:00,
2013-08-07 14:11:00,83.0,75.0,29.78,WNW,292,1.0,-999.0,78,-99.99,,,-99.99,,2013-08-07 19:11:00,
2013-08-07 14:22:00,83.0,75.0,29.78,WNW,292,1.0,-999.0,78,-99.99,,,-99.99,,2013-08-07 19:22:00,
2013-08-07 14:32:00,82.0,75.0,29.78,NNW,328,1.0,-999.0,79,-99.99,,,-99.99,,2013-08-07 19:32:00,
2013-08-07 14:44:00,83.0,75.0,29.78,NNW,328,1.0,-999.0,78,-99.99,,,-99.99,,2013-08-07 19:44:00,
2013-08-07 14:52:00,83.0,75.0,29.78,NNW,328,1.0,-999.0,78,-99.99,,,-99.99,,2013-08-07 19:52:00,
2013-08-07 15:02:00,83.0,74.0,29.78,NW,305,1.0,-999.0,75,-99.99,,,-99.99,,2013-08-07 20:02:00,
2013-08-07 15:11:00,82.0,74.0,29.79,West,273,2.0,-999.0,76,-99.99,,,-99.99,,2013-08-07 20:11:00,
2013-08-07 15:22:00,82.0,74.0,29.79,West,273,2.0,-999.0,76,-99.99,,,-99.99,,2013-08-07 20:22:00,
2013-08-07 15:32:00,83.0,70.0,29.79,WNW,298,1.0,-999.0,66,-99.99,,,-99.99,,2013-08-07 20:32:00,
2013-08-07 15:43:00,83.0,72.0,29.78,West,281,1.0,-999.0,69,-99.99,,,-99.99,,2013-08-07 20:43:00,
2013-08-07 15:52:00,83.0,72.0,29.78,West,281,1.0,-999.0,69,-99.99,,,-99.99,,2013-08-07 20:52:00,
2013-08-07 16:01:00,84.0,71.0,29.78,NW,325,0.0,-999.0,65,-99.99,,,-99.99,,2013-08-07 21:01:00,
2013-08-07 16:11:00,84.0,71.0,29.79,WNW,290,2.0,-999.0,65,-99.99,,,-99.99,,2013-08-07 21:11:00,
2013-08-07 16:22:00,84.0,71.0,29.79,WNW,290,2.0,-999.0,65,-99.99,,,-99.99,,2013-08-07 21:22:00,
2013-08-07 16:32:00,84.0,70.0,29.78,NW,310,1.0,-999.0,64,-99.99,,,-99.99,,2013-08-07 21:32:00,
2013-08-07 16:43:00,83.0,70.0,29.79,North,360,1.0,-999.0,64,-99.99,,,-99.99,,2013-08-07 21:43:00,
2013-08-07 16:52:00,83.0,70.0,29.79,North,360,1.0,-999.0,64,-99.99,,,-99.99,,2013-08-07 21:52:00,
2013-08-07 17:01:00,84.0,73.0,29.79,West,277,1.0,-999.0,69,-99.99,,,-99.99,,2013-08-07 22:01:00,
2013-08-07 17:12:00,84.0,71.0,29.79,NNW,333,0.0,-999.0,65,-99.99,,,-99.99,,2013-08-07 22:12:00,
2013-08-07 17:22:00,84.0,71.0,29.79,NNW,333,0.0,-999.0,65,-99.99,,,-99.99,,2013-08-07 22:22:00,
2013-08-07 17:32:00,84.0,70.0,29.79,WNW,290,0.0,-999.0,63,-99.99,,,-99.99,,2013-08-07 22:32:00,
2013-08-07 17:43:00,84.0,69.0,29.79,NW,314,1.0,-999.0,61,-99.99,,,-99.99,,2013-08-07 22:43:00,
2013-08-07 17:52:00,84.0,69.0,29.79,NW,314,1.0,-999.0,61,-99.99,,,-99.99,,2013-08-07 22:52:00,
2013-08-07 18:01:00,84.0,69.0,29.80,WNW,292,0.0,-999.0,60,-99.99,,,-99.99,,2013-08-07 23:01:00,
2013-08-07 18:11:00,84.0,69.0,29.80,WNW,294,0.0,-999.0,60,-99.99,,,-99.99,,2013-08-07 23:11:00,
2013-08-07 18:22:00,84.0,69.0,29.80,WNW,294,0.0,-999.0,60,-99.99,,,-99.99,,2013-08-07 23:22:00,
2013-08-07 18:32:00,83.0,70.0,29.80,NW,325,0.0,-999.0,64,-99.99,,,-99.99,,2013-08-07 23:32:00,
2013-08-07 18:43:00,82.0,69.0,29.80,WNW,298,0.0,-999.0,65,-99.99,,,-99.99,,2013-08-07 23:43:00,
2013-08-07 18:52:00,82.0,69.0,29.80,WNW,298,0.0,-999.0,65,-99.99,,,-99.99,,2013-08-07 23:52:00,
2013-08-07 19:01:00,82.0,68.0,29.81,NNW,338,1.0,-999.0,63,-99.99,,,-99.99,,2013-08-08 00:01:00,
2013-08-07 19:22:00,81.0,68.0,29.82,NNW,342,0.0,-999.0,64,-99.99,,,-99.99,,2013-08-08 00:22:00,
2013-08-07 19:32:00,81.0,68.0,29.82,NNW,342,0.0,-999.0,64,-99.99,,,-99.99,,2013-08-08 00:32:00,
2013-08-07 19:42:00,80.0,68.0,29.83,NW,304,0.0,-999.0,68,-99.99,,,-99.99,,2013-08-08 00:42:00,
2013-08-07 19:52:00,80.0,68.0,29.83,NW,304,0.0,-999.0,68,-99.99,,,-99.99,,2013-08-08 00:52:00,
2013-08-07 20:02:00,79.0,69.0,29.83,NW,304,0.0,-999.0,71,-99.99,,,-99.99,,2013-08-08 01:02:00,
2013-08-07 20:11:00,79.0,69.0,29.83,NW,304,0.0,-999.0,71,-99.99,,,-99.99,,2013-08-08 01:11:00,
2013-08-07 20:22:00,77.0,68.0,29.83,NW,304,0.0,-999.0,74,-99.99,,,-99.99,,2013-08-08 01:22:00,
2013-08-07 20:32:00,77.0,68.0,29.83,NW,304,0.0,-999.0,74,-99.99,,,-99.99,,2013-08-08 01:32:00,
2013-08-07 20:43:00,75.0,67.0,29.84,NW,304,0.0,-999.0,77,-99.99,,,-99.99,,2013-08-08 01:43:00,
2013-08-07 20:52:00,74.0,67.0,29.84,NW,304,0.0,-999.0,80,-99.99,,,-99.99,,2013-08-08 01:52:00,
2013-08-07 21:02:00,73.0,67.0,29.85,NW,304,0.0,-999.0,82,-99.99,,,-99.99,,2013-08-08 02:02:00,
2013-08-07 21:11:00,72.0,67.0,29.85,NW,304,0.0,-999.0,84,-99.99,,,-99.99,,2013-08-08 02:11:00,
2013-08-07 21:22:00,72.0,67.0,29.85,NW,304,0.0,-999.0,84,-99.99,,,-99.99,,2013-08-08 02:22:00,
2013-08-07 21:32:00,72.0,67.0,29.86,NW,308,0.0,-999.0,84,-99.99,,,-99.99,,2013-08-08 02:32:00,
2013-08-07 21:42:00,72.0,67.0,29.87,NNW,333,0.0,-999.0,83,-99.99,,,-99.99,,2013-08-08 02:42:00,
2013-08-07 21:52:00,72.0,67.0,29.87,NNW,333,0.0,-999.0,83,-99.99,,,-99.99,,2013-08-08 02:52:00,
2013-08-07 22:01:00,72.0,67.0,29.88,NNW,335,0.0,-999.0,84,-99.99,,,-99.99,,2013-08-08 03:01:00,
2013-08-07 22:12:00,71.0,66.0,29.88,NNW,335,0.0,-999.0,84,-99.99,,,-99.99,,2013-08-08 03:12:00,
2013-08-07 22:22:00,71.0,66.0,29.88,NNW,335,0.0,-999.0,84,-99.99,,,-99.99,,2013-08-08 03:22:00,
2013-08-07 22:32:00,71.0,66.0,29.88,NNW,332,0.0,-999.0,85,-99.99,,,-99.99,,2013-08-08 03:32:00,
2013-08-07 22:43:00,71.0,66.0,29.88,NNW,332,0.0,-999.0,85,-99.99,,,-99.99,,2013-08-08 03:43:00,
2013-08-07 22:52:00,71.0,66.0,29.88,NNW,338,0.0,-999.0,85,-99.99,,,-99.99,,2013-08-08 03:52:00,
2013-08-07 23:01:00,70.0,65.0,29.89,NNW,338,0.0,-999.0,85,-99.99,,,-99.99,,2013-08-08 04:01:00,
2013-08-07 23:11:00,70.0,65.0,29.89,NE,38,0.0,-999.0,85,-99.99,,,-99.99,,2013-08-08 04:11:00,
2013-08-07 23:22:00,70.0,65.0,29.89,NE,38,0.0,-999.0,85,-99.99,,,-99.99,,2013-08-08 04:22:00,
2013-08-07 23:33:00,69.0,64.0,29.90,NNE,19,0.0,-999.0,85,-99.99,,,-99.99,,2013-08-08 04:33:00,
2013-08-07 23:43:00,69.0,64.0,29.90,NNE,19,0.0,-999.0,85,-99.99,,,-99.99,,2013-08-08 04:43:00,
2013-08-07 23:53:00,69.0,65.0,29.90,SW,236,0.0,-999.0,86,-99.99,,,-99.99,,2013-08-08 04:53:00,